Date String (YYYY-MM-DD hh:mm:ss) UTC,Instrument flags,Ambient pressure (hPa),Sample flow (lpm),Bypass flow (lpm),Sample temperature (°C),Ambient temperature (°C),ASC tube jacket temperature (°C),LED temperature (°C),Box temperature (°C),Sample RH (%),Span deviation,Mass concentration (μg/m³),Mass concentration (μg/m³),Mass concentration (μg/m³)
DateTimeUTC,F1_M11,P_M11,Q1_M11,Q2_M11,T1_M11,T2_M11,T3_M11,T4_M11,T5_M11,U1_M11,ZSPAN_M11,X2_M11,X0_M11,X1_M11
2022-01-23 21:00:00,,0824.1,4.99,0.00,25.5,24.9,00.0,34.4,27.3,08.4,0000.0,0003.47,0007.31,0003.22
2022-01-23 21:01:00,,0824.1,5.01,0.00,25.5,24.9,00.0,34.4,27.3,08.1,0000.0,0003.49,0007.21,0003.24
2022-01-23 21:02:00,,0824.0,4.99,0.00,25.5,24.9,00.0,34.4,27.3,08.0,0000.0,0003.52,0007.35,0003.25
2022-01-23 21:03:00,,0824.1,5.00,0.00,25.5,24.9,00.0,34.4,27.4,08.1,0000.0,0003.54,0007.40,0003.27
2022-01-23 21:04:00,,0824.1,5.01,0.00,25.5,24.9,00.0,34.4,27.3,08.2,0000.0,0003.56,0007.44,0003.27
2022-01-23 21:05:00,,0824.1,4.99,0.00,25.5,25.0,00.0,34.4,27.4,08.3,0000.0,0003.54,0007.38,0003.26
2022-01-23 21:06:00,,0824.1,5.01,0.00,25.6,25.0,00.0,34.4,27.4,08.3,0000.0,0003.51,0007.25,0003.24
2022-01-23 21:07:00,,0824.1,4.99,0.00,25.6,25.0,00.0,34.5,27.5,08.2,0000.0,0003.50,0006.98,0003.23
2022-01-23 21:08:00,,0824.1,5.00,0.00,25.6,25.0,00.0,34.5,27.5,07.9,0000.0,0003.45,0006.81,0003.21
2022-01-23 21:09:00,,0824.0,5.01,0.00,25.6,25.0,00.0,34.5,27.5,07.9,0000.0,0003.41,0006.73,0003.19
2022-01-23 21:10:00,,0824.0,4.99,0.00,25.6,25.1,00.0,34.5,27.5,07.7,0000.0,0003.39,0007.10,0003.17
2022-01-23 21:11:00,,0824.1,4.99,0.00,25.7,25.1,00.0,34.5,27.5,07.8,0000.0,0003.37,0005.86,0003.15
2022-01-23 21:12:00,,0824.1,5.01,0.00,25.7,25.1,00.0,34.5,27.5,07.9,0000.0,0003.36,0005.34,0003.13
2022-01-23 21:13:00,,0824.0,5.00,0.00,25.7,25.1,00.0,34.5,27.5,07.9,0000.0,0003.33,0005.04,0003.09
2022-01-23 21:14:00,,0824.1,5.00,0.00,25.7,25.1,00.0,34.6,27.5,07.7,0000.0,0003.31,0005.15,0003.06
2022-01-23 21:15:00,,0824.1,4.99,0.00,25.7,25.1,00.0,34.6,27.6,07.6,0000.0,0003.28,0005.14,0003.03
2022-01-23 21:16:00,,0824.1,5.00,0.00,25.7,25.1,00.0,34.6,27.6,07.7,0000.0,0003.28,0005.14,0003.02
2022-01-23 21:17:00,,0824.1,5.01,0.00,25.7,25.2,00.0,34.6,27.6,07.7,0000.0,0003.30,0005.22,0003.04
2022-01-23 21:18:00,,0824.1,4.99,0.00,25.8,25.2,00.0,34.6,27.6,07.8,0000.0,0003.31,0005.82,0003.07
2022-01-23 21:19:00,,0824.1,5.00,0.00,25.8,25.2,00.0,34.6,27.6,07.7,0000.0,0003.32,0005.91,0003.11
2022-01-23 21:20:00,,0824.0,5.01,0.00,25.8,25.2,00.0,34.6,27.6,07.7,0000.0,0003.36,0007.39,0003.14
2022-01-23 21:21:00,,0824.0,4.99,0.00,25.8,25.2,00.0,34.7,27.6,07.7,0000.0,0003.38,0007.12,0003.17
2022-01-23 21:22:00,,0824.0,4.99,0.00,25.8,25.3,00.0,34.7,27.7,07.5,0000.0,0003.40,0007.14,0003.19
2022-01-23 21:23:00,,0823.9,5.01,0.00,25.8,25.3,00.0,34.7,27.7,07.8,0000.0,0003.41,0007.22,0003.20
2022-01-23 21:24:00,,0824.0,4.99,0.00,25.9,25.3,00.0,34.7,27.7,08.0,0000.0,0003.46,0007.41,0003.24
2022-01-23 21:25:00,,0823.9,4.99,0.00,25.9,25.3,00.0,34.7,27.7,07.9,0000.0,0003.49,0007.30,0003.27
2022-01-23 21:26:00,,0823.9,5.01,0.00,25.9,25.3,00.0,34.7,27.8,08.0,0000.0,0003.51,0007.25,0003.30
2022-01-23 21:27:00,,0823.9,4.98,0.00,25.9,25.3,00.0,34.7,27.8,08.1,0000.0,0003.56,0007.38,0003.33
2022-01-23 21:28:00,,0823.9,5.00,0.00,26.0,25.4,00.0,34.8,27.9,07.9,0000.0,0003.59,0007.42,0003.36
2022-01-23 21:29:00,,0823.9,5.01,0.00,26.0,25.4,00.0,34.8,27.8,08.0,0000.0,0003.64,0007.09,0003.39
2022-01-23 21:30:00,,0823.9,4.99,0.00,26.0,25.4,00.0,34.8,27.9,08.0,0000.0,0003.71,0007.34,0003.42
2022-01-23 21:31:00,,0823.8,5.00,0.00,26.0,25.4,00.0,34.8,27.9,08.1,0000.0,0003.73,0006.26,0003.44
2022-01-23 21:32:00,,0823.9,5.01,0.00,26.0,25.4,00.0,34.8,27.9,08.2,0000.0,0003.75,0005.96,0003.47
2022-01-23 21:33:00,,0823.9,4.99,0.00,26.0,25.4,00.0,34.9,27.9,08.1,0000.0,0003.77,0005.95,0003.51
2022-01-23 21:34:00,,0823.9,5.02,0.00,26.0,25.4,00.0,34.9,27.9,07.9,0000.0,0003.82,0006.05,0003.55
2022-01-23 21:35:00,,0823.9,4.99,0.00,26.1,25.5,00.0,34.9,27.9,08.0,0000.0,0003.80,0005.76,0003.57
2022-01-23 21:36:00,,0823.9,5.00,0.00,26.1,25.5,00.0,34.9,27.9,07.9,0000.0,0003.82,0005.79,0003.60
2022-01-23 21:37:00,,0823.9,5.00,0.00,26.1,25.5,00.0,34.9,28.0,07.9,0000.0,0003.87,0005.95,0003.63
2022-01-23 21:38:00,,0823.9,4.99,0.00,26.1,25.5,00.0,34.9,28.0,07.9,0000.0,0003.93,0006.38,0003.69
2022-01-23 21:39:00,,0823.9,5.02,0.00,26.1,25.5,00.0,34.9,28.0,07.9,0000.0,0003.95,0007.44,0003.73
2022-01-23 21:40:00,,0823.9,4.99,0.00,26.1,25.5,00.0,35.0,28.0,07.9,0000.0,0003.96,0007.54,0003.76
2022-01-23 21:41:00,,0823.9,5.01,0.00,26.1,25.5,00.0,35.0,28.0,07.8,0000.0,0003.98,0007.78,0003.78
2022-01-23 21:42:00,,0823.9,5.00,0.00,26.1,25.5,00.0,35.0,28.0,07.9,0000.0,0003.99,0007.83,0003.79
2022-01-23 21:43:00,,0823.9,4.99,0.00,26.2,25.6,00.0,35.0,28.1,07.8,0000.0,0004.01,0007.87,0003.80
2022-01-23 21:44:00,,0823.9,5.02,0.00,26.2,25.6,00.0,35.0,28.1,07.9,0000.0,0004.04,0008.03,0003.82
2022-01-23 21:45:00,,0823.9,5.00,0.00,26.2,25.6,00.0,35.0,28.1,07.9,0000.0,0004.06,0008.11,0003.83
2022-01-23 21:46:00,,0823.8,4.98,0.00,26.2,25.6,00.0,35.0,28.1,07.8,0000.0,0004.09,0008.69,0003.85
2022-01-23 21:47:00,,0823.8,5.01,0.00,26.2,25.6,00.0,35.1,28.1,07.7,0000.0,0004.11,0008.80,0003.87
2022-01-23 21:48:00,,0823.8,4.99,0.00,26.2,25.6,00.0,35.1,28.1,07.8,0000.0,0004.13,0008.79,0003.88
2022-01-23 21:49:00,,0823.8,5.01,0.00,26.2,25.6,00.0,35.1,28.1,07.8,0000.0,0004.12,0008.57,0003.88
2022-01-23 21:50:00,,0823.9,5.00,0.00,26.3,25.7,00.0,35.1,28.2,07.8,0000.0,0004.14,0007.99,0003.88
2022-01-23 21:51:00,,0823.9,4.99,0.00,26.3,25.7,00.0,35.1,28.2,07.9,0000.0,0004.17,0008.04,0003.87
2022-01-23 21:52:00,,0823.8,5.01,0.00,26.3,25.7,00.0,35.1,28.2,07.9,0000.0,0004.14,0007.68,0003.87
2022-01-23 21:53:00,,0823.9,5.00,0.00,26.4,25.7,00.0,35.2,28.2,07.8,0000.0,0004.14,0007.52,0003.88
2022-01-23 21:54:00,,0823.9,4.99,0.00,26.4,25.8,00.0,35.2,28.3,07.8,0000.0,0004.16,0007.50,0003.90
2022-01-23 21:55:00,,0823.9,5.01,0.00,26.4,25.8,00.0,35.2,28.3,07.7,0000.0,0004.20,0007.51,0003.93
2022-01-23 21:56:00,,0823.9,4.99,0.00,26.4,25.8,00.0,35.2,28.3,07.8,0000.0,0004.20,0007.56,0003.93
2022-01-23 21:57:00,,0823.8,5.01,0.00,26.4,25.8,00.0,35.2,28.3,07.7,0000.0,0004.20,0006.91,0003.93
2022-01-23 21:58:00,,0823.8,5.00,0.00,26.4,25.8,00.0,35.2,28.3,07.6,0000.0,0004.18,0006.72,0003.92
2022-01-23 21:59:00,,0823.8,4.99,0.00,26.4,25.8,00.0,35.3,28.3,07.6,0000.0,0004.17,0007.62,0003.90
